RADUGA-1 4 (25642 NORAD) Tracking and Keplerian Element Data

This shows tracking and keplerian element data for the satellite.

Feedback or suggestion? Click here.




ElementValue
Catalog25642
NameRADUGA-1 4
Epoch Orbit9495
Epoch Day34.54840446
Epoch Year2025
RAAN5.7695
Inclination15.5027
Eccentricity0.0006704
Argument of Perigee264.2166
Mean Anonmoly100.0103
Mean Motion1.00304871
Decay Rate1.19E-06
L11 25642U 99010A 25034.54840446 .00000119 00000+0 00000+0 0 9996
L22 25642 15.5027 5.7695 0006704 264.2166 100.0103 1.00304871 94953



Live tracking and technical data element details for RADUGA-1 4 (NORAD 25642). RADUGA-1 4 can be tracked NOW for your location showing map with azimuth and elevation plus other details from your city location.







IsCatalogInMostPopularTable: catalog: 25642, numindb: 334
Update: records affected: 1



GetName: 25642 RADUGA-1 4

Hit Count: updated at: Thu, 22 May 2025 04:25:14 GMT